Weather History for KRYT - November, 2012

Change the Weather History Date:

Friday, November 9, 2012

  Actual Average (KHGR) Record (KHGR)
Temperature  
Mean Temperature 46 °F -  
Max Temperature 55 °F 51 °F 72 °F (1999)
Min Temperature 37 °F 36 °F 25 °F (2003)
Degree Days  
Heating Degree Days 19    
Moisture  
Dew Point 30 °F    
Average Humidity 58    
Maximum Humidity 70    
Minimum Humidity 41    
Precipitation  
Precipitation 0.00 in - - ()
Sea Level Pressure  
Sea Level Pressure 30.16 in    
Wind  
Wind Speed 5 mph (West)    
Max Wind Speed 9 mph    
Max Gust Speed 23 mph    
Visibility 10 miles    
Events      
Averages and records for this station are not official NWS values.
T = Trace of Precipitation, MM = Missing Value Source: NWS Daily Summary

Daily Weather History Graph

Daily Weather History Graph

Search for Another Location

Airport or City:

Trip Planner

Search our weather history database for the weather conditions in past years. The results will help you decide how hot, cold, wet, or windy it might be!

Date:

Astronomy

Nov. 09, 2012 Rise Set
Actual Time 6:47 AM EST 4:58 PM EST
Civil Twilight 6:19 AM EST 5:27 PM EST
Nautical Twilight 5:47 AM EST 5:59 PM EST
Astronomical Twilight 5:15 AM EST 6:31 PM EST
Moon 1:45 AM EST (11/9) 2:10 PM EST (11/9)
Length of Visible Light 11h 07m
Length of Day
10h 10m
Waning Crescent, 23% of the Moon is Illuminated
Nov 9
Waning Crescent
Nov 13
New
Nov 20
First Quarter
Nov 28
Full
Dec 6
Last Quarter

Hourly Weather History & Observations

Time (EST) Temp. Windchill Dew Point Humidity Pressure Visibility Wind Dir Wind Speed Gust Speed Precip Events Conditions
12:53 AM 41.0 °F 38.0 °F 26.1 °F 55% 30.06 in 10.0 mi Variable 4.6 mph 23.0 mph N/A   Clear
1:53 AM 39.9 °F 34.5 °F 27.0 °F 60% 30.07 in 10.0 mi West 8.1 mph - N/A   Clear
2:53 AM 39.9 °F 36.7 °F 27.0 °F 60% 30.08 in 10.0 mi Variable 4.6 mph - N/A   Clear
3:53 AM 39.0 °F 35.7 °F 27.0 °F 62% 30.09 in 10.0 mi Variable 4.6 mph - N/A   Clear
4:53 AM 37.9 °F 32.7 °F 27.0 °F 65% 30.11 in 10.0 mi WSW 6.9 mph - N/A   Clear
5:53 AM 37.0 °F 32.4 °F 28.0 °F 70% 30.14 in 10.0 mi Variable 5.8 mph - N/A   Clear
6:53 AM 37.0 °F 31.6 °F 28.0 °F 70% 30.16 in 10.0 mi Variable 6.9 mph - N/A   Clear
7:53 AM 37.9 °F 32.7 °F 28.9 °F 70% 30.19 in 10.0 mi Variable 6.9 mph - N/A   Clear
8:53 AM 41.0 °F 35.8 °F 30.0 °F 65% 30.20 in 10.0 mi West 8.1 mph - N/A   Clear
9:53 AM 45.0 °F 40.1 °F 30.9 °F 58% 30.22 in 10.0 mi West 9.2 mph - N/A   Clear
10:53 AM 48.0 °F - 30.9 °F 52% 30.22 in 10.0 mi Variable 4.6 mph - N/A   Clear
11:53 AM 51.1 °F - 30.9 °F 46% 30.19 in 10.0 mi WNW 8.1 mph - N/A   Clear
12:53 PM 53.1 °F - 30.9 °F 43% 30.17 in 10.0 mi NW 6.9 mph - N/A   Clear
1:53 PM 53.1 °F - 30.9 °F 43% 30.16 in 10.0 mi WSW 8.1 mph - N/A   Clear
2:53 PM 54.0 °F - 30.9 °F 41% 30.15 in 10.0 mi Variable 6.9 mph - N/A   Clear
3:53 PM 55.0 °F - 32.0 °F 42% 30.15 in 10.0 mi NW 5.8 mph - N/A   Clear
4:53 PM 52.0 °F - 32.0 °F 47% 30.16 in 10.0 mi Calm Calm - N/A   Clear
5:53 PM 46.9 °F - 32.0 °F 56% 30.19 in 10.0 mi Calm Calm - N/A   Clear
6:53 PM 45.0 °F - 32.0 °F 60% 30.20 in 10.0 mi Calm Calm - N/A   Clear
7:53 PM 43.0 °F - 32.0 °F 65% 30.21 in 10.0 mi Calm Calm - N/A   Clear
8:53 PM 43.0 °F - 32.0 °F 65% 30.21 in 9.0 mi Calm Calm - N/A   Clear
9:53 PM 46.0 °F 44.8 °F 32.0 °F 58% 30.20 in 10.0 mi SSW 3.5 mph - N/A   Clear
10:53 PM 44.1 °F - 32.0 °F 63% 30.21 in 10.0 mi Calm Calm - N/A   Clear
11:53 PM 42.1 °F - 32.0 °F 67% 30.22 in 10.0 mi Calm Calm - N/A   Clear